www.srh.weather.gov   
NOAA logo - Click to go to the NOAA homepage   NWS logo
Regional Weather Roundup
Enter Your "City, ST" or zip code   
Current Version              Previous Version:    01  02  03  04  05  06  07  08  09  10  11  12  13  14  15  16  17  18  19  20  21  22  23  24  25  26  27  28  29  30  
   31  32  33  34  35  36  37  38  39  40  41  42  43  44  45  46  47  48  49  50  51  52  53  54  55  56  57  58  59  60  
[Printable]
776
ASUS46 KPDT 250625
RWRPDT
PENDLETON REGIONAL WEATHER ROUNDUP
NATIONAL WEATHER SERVICE PENDLETON OREGON
1100 PM PDT FRI OCT 24 2014

NOTE: FAIR INDICATES FEW OR NO CLOUDS BELOW 12,000 FEET WITH NO
SIGNIFICANT WEATHER AND/OR OBSTRUCTIONS TO VISIBILITY.

# INDICATES UNOFFICIAL STATION AND DATA

WAZ520-250710-
EAST SLOPES OF WASHINGTON CASCADES

CITY            SKY/WX      TMP DP  RH  WIND    PRES   REMARKS
#BULLFROG 2SW   N/A         63  43  48  CALM    29.68S
#BUMPING DAM    N/A         38  N/A N/A NW7     N/A
#CLE ELUM HS    N/A         44  42  93  CALM    29.88F
#CLE ELUM 2NW   N/A         44  43  96  CALM    N/A
#CLE ELUM LAKE  N/A         41  40  96  CALM    29.91F
#CLIFFDEL 2NW   N/A         40  40  100 CALM    N/A
#GLENWOOD       N/A         47  45  93  NE3     29.86F
#MANASTASH CYN  N/A         42  39  89  CALM    29.89F
#NELSON         N/A         43  42  96  CALM    29.95F
#NELSON 3SW     N/A         40  39  96  CALM    30.16F
#NILE           N/A         43  42  96  CALM    29.20F
#RONALD 2NW     N/A         42  41  96  CALM    29.79F
#SNOWDEN        N/A         45  41  86  CALM    N/A
#TEANAWAY 4NE   N/A         44  44  100 CALM    N/A
#TROUT LAKE 1NE N/A         46  45  96  CALM    29.84F
$$

WAZ521-250710-
SIMCOE HIGHLANDS

CITY            SKY/WX      TMP DP  RH  WIND    PRES   REMARKS
#BICKLETON HS   N/A         43  41  93  N8      29.97S
#CENTERVILLE 4W N/A         49  45  86  E1      29.60F
#CENTERVILLE 1SWN/A         47  44  89  CALM    29.82F
#GOLDENDALE     N/A         48  47  96  SE24G41 N/A    WCI 40
#GOLDENDALE 1NE N/A         49  44  83  CALM    N/A
#GOLDENDALE 1S  N/A         48  45  89  E2      29.83F
#GOLDENDALE 5WNWN/A         47  44  89  CALM    29.84F
#GOODNOE HILLS  N/A         48  46  93  E2      29.78F
#LYLE 6NE       N/A         47  46  96  CALM    29.83F
$$

WAZ026-250710-
KITTITAS VALLEY

CITY            SKY/WX      TMP DP  RH  WIND    PRES   REMARKS
ELLENSBURG AP   CLOUDY      47  44  89  N5      29.92F
6HR MIN TEMP:   47; 6HR MAX TEMP:   51; 6HR PCP:  0.18;

#ELLENSBURG CWU N/A         45  43  93  W1      29.89F
#ELLENSBURG 3NE N/A         44  43  96  N1      29.92F
#ELLENSBURG     N/A         49  49  100 CALM    N/A
#KITTITAS 3S    N/A         45  44  96  CALM    29.92F
#THORP 6N       N/A         42  40  93  N5      29.95F
$$

WAZ027-250710-
YAKIMA VALLEY

CITY            SKY/WX      TMP DP  RH  WIND    PRES   REMARKS
SUNNYSIDE AP    CLOUDY      46  46  100 W9      29.89F
YAKIMA AIRPORT  CLOUDY      48  45  89  W7      29.92F
6HR MIN TEMP:   48; 6HR MAX TEMP:   51; 6HR PCP:  0.19;

YAKIMA-VAGABOND CLOUDY      47  45  93  E3      29.92F
#COWICHE 1N     N/A         46  43  89  CALM    30.05F
#DONALD 2NE     N/A         48  46  93  CALM    30.21F
#GRANDVIEW      N/A         48  46  93  W2      29.90F
#MABTON         N/A         49  47  93  CALM    29.89F
#MOXEE 2E       N/A         47  46  96  W3      29.88F
#NACHES 2SW     N/A         46  44  93  W1      29.96S
#OUTLOOK DOT    N/A         N/A N/A N/A W6      N/A
#SELAH 8E       N/A         45  44  96  NE1     N/A
#TERRACE HTS    N/A         48  46  93  N1      29.88F
#TOPPENISH      N/A         48  46  93  W1      29.83F
#WAPATO 4NE     N/A         48  46  93  CALM    30.21F
#WEST VALLEY    N/A         47  45  93  CALM    29.91F
#W YAKIMA       N/A         47  45  93  NW2     29.91F
#WHITE SWAN 5E  N/A         48  46  93  SW2     29.92F
#WILEY CITY 3W  N/A         45  32  60  CALM    29.96S
$$

WAZ028-250710-
LOWER COLUMBIA BASIN...WASHINGTON

CITY            SKY/WX      TMP DP  RH  WIND    PRES   REMARKS
PASCO           MOCLDY      50  48  93  NW13    29.87F
PROSSER AWOS    N/A         48  48  100 SW6     29.91F
RICHLAND AWOS   CLOUDY      52  46  80  NW14    29.89F
#BASIN CITY 5SW N/A         49  47  93  NW5     29.88F
#BENTON CITY    N/A         49  46  89  SW1     29.79F
#CONNELL 5N     N/A         52  49  89  N5      29.88F
#CONNELL 5NW    N/A         49  47  93  N5      29.85F
#ELTOPIA        N/A         50  48  93  CALM    29.85S
#ELTOPIA 6NW    N/A         47  46  96  NW7     28.85F
#KENNEWICK      N/A         63  43  48  CALM    29.68S
#KENNEWICK 3S   N/A         49  47  93  CALM    29.89F
#PASCO-BROADMOORN/A         50  48  93  W5      29.78F
#PATERSON       N/A         50  46  86  CALM    29.85F
#PROSSER        N/A         48  46  93  W6      29.89F
#SAGEMOOR 2W    N/A         48  46  93  W7      29.72F
#TOUCHET 2S     N/A         49  47  93  W2      29.85F
#WEST PASCO     N/A         51  47  86  NW6     29.88F
$$

WAZ029-250710-
FOOTHILLS OF THE BLUES...WASHINGTON

CITY            SKY/WX      TMP DP  RH  WIND    PRES   REMARKS
WALLA WALLA AP  FOG         50  49  96  S9      29.85F VSB<1/4
6HR MIN TEMP:   50; 6HR MAX TEMP:   54; 6HR PCP:  0.02;

#LOWDEN 2SE     N/A         49  48  96  W3      29.83F
#PLEASANT VIEW 1N/A         50  48  93  N5      29.91F
#PRESCOTT       N/A         50  48  93  SW1     29.83F
#WHITMAN COLLEGEN/A         49  48  96  S1      29.89F
#WAITSBURG 8N   N/A         51  43  74  N6      29.79F
#WALLA WALLA 5E N/A         49  48  96  CALM    N/A
#WHITMAN MISSIONN/A         49  48  96  W2      29.86F
$$

WAZ030-250710-
BLUE MOUNTAINS...WASHINGTON

CITY            SKY/WX      TMP DP  RH  WIND    PRES   REMARKS
$$

ORZ009-041-WAZ024-250710-
COLUMBIA RIVER GORGE

CITY            SKY/WX      TMP DP  RH  WIND    PRES   REMARKS
HOOD RIVER AP   CLOUDY      50  50  100 CALM    29.86F
THE DALLES AP   CLOUDY      52  50  93  CALM    29.86F
6HR MIN TEMP:   52; 6HR MAX TEMP:   53; 6HR PCP:  0.04;

#ARLINGTON AIRPON/A         48  46  93  E5      29.99S
#ARLINGTON HS   N/A         48  46  93  CALM    29.79F
#CELILO DOT     N/A         53  48  83  CALM    N/A
#LYLE           N/A         52  50  93  NE1     29.88F
#MARYHILL 2W    N/A         52  51  96  CALM    N/A
#MOSIER 1S      N/A         49  48  96  CALM    N/A
#MURDOCK        N/A         54  52  93  CALM    29.88F
#RUFUS DOT      N/A         52  47  83  N3      N/A

$$

ORZ510-250710-
NORTH CENTRAL OREGON

CITY            SKY/WX      TMP DP  RH  WIND    PRES   REMARKS
#CHENOWITH 1W   N/A         46  46  100 SE3     N/A
#COW CYN RST AREN/A         45  N/A N/A NE6     N/A
#DUFUR 9E       N/A         46  44  93  E22     29.90F WCI 38
#GRASS VALLEY   N/A         43  43  100 N5      N/A
#GRASS VALLEY 1SN/A         45  44  96  E7      29.86F
#KENT DOT       N/A         44  41  89  NE7     N/A
#MAUPIN SCHOOL  N/A         50  47  89  N2      28.74F
#MORO SCHOOL    N/A         47  47  100 E1      29.88F
#SHANIKO 5WSW   N/A         44  41  89  NE8     N/A
#SHANIKO 4NW    N/A         44  44  100 NE9     29.83F
#TYGH VALLEY 2NEN/A         51  47  86  NE7     29.85F
#WAPANITIA AIRPON/A         47  46  96  NE3     29.87F
#WASCO DOT      N/A         46  45  96  E2      N/A
#WASCO 5NE      N/A         44  42  93  CALM    29.87F
$$

ORZ511-250710-
CENTRAL OREGON

CITY            SKY/WX      TMP DP  RH  WIND    PRES   REMARKS
BEND AIRPORT    FOG         45  45  100 CALM    29.85F VSB 1/4
MADRAS AIRPORT  CLOUDY      46  46  100 NW3     29.86F
PRINEVILLE AP   FOG         46  46  100 CALM    29.84F VSB 1/4
REDMOND AIRPORT FOG         45  44  96  N3      29.84F VSB 1/4
6HR MIN TEMP:   45; 6HR MAX TEMP:   54;

#BEND 6E        N/A         45  42  89  CALM    29.78F
#BEND 1SW       N/A         44  44  100 CALM    N/A
#BEND-KIM LN    N/A         45  44  96  CALM    29.80F
#CULVER         N/A         46  44  93  CALM    29.81F
#LAKE BILLY CHINN/A         47  44  89  CALM    29.91F
#POWELL BUTTE 3EN/A         45  45  100 W2      N/A
#POWELL BUTTE   N/A         45  43  93  W1      29.48F
#PRINEVILLE 3N  N/A         44  43  96  CALM    29.78F
#WARM SPRINGS   N/A         50  47  89  SW1     29.83S


ORZ509-250710-
EAST SLOPES OF OREGON CASCADES

CITY            SKY/WX      TMP DP  RH  WIND    PRES   REMARKS
#CAMP SHERMAN   N/A         46  44  93  CALM    29.82F
#LA PINE DOT    N/A         41  41  100 NW3     N/A
#LA PINE 4NW    N/A         42  39  89  CALM    29.83F
#LAVA BUTTE DOT N/A         42  41  96  CALM    N/A
#SISTERS AIRPOR N/A         45  45  100 N2      29.91S
#SISTERS ODOT   N/A         45  N/A N/A CALM    N/A
#SISTERS 1NW    N/A         46  44  93  S8      N/A
#SISTERS 3N     N/A         46  45  96  NE3     29.86S
#SUNRIVER       N/A         44  43  96  CALM    29.69F
#SUNRIVER AP    N/A         43  42  96  CALM    29.77F
#SUTTLE LK DOT  N/A         39  39  100 E22     N/A    WCI 29
#TUMALO 3W      N/A         44  43  96  CALM    29.72F
#WANOGA BUTTE D N/A         41  38  89  W3      N/A

$$

ORZ044-250710-
LOWER COLUMBIA BASIN...OREGON

CITY            SKY/WX      TMP DP  RH  WIND    PRES   REMARKS
HERMISTON       MOCLDY      50  46  86  N5      29.85F
#BOARDMAN 3W    N/A         51  48  89  NE5     29.56F
#BOARDMAN 8SW   N/A         49  47  93  N6      29.86F
#ECHO 8SW       N/A         47  42  83  CALM    29.84F
#IONE SCHOOL    N/A         48  39  71  CALM    29.86F
#IRRIGON 4NW    N/A         53  47  80  N2      N/A
#UMATILLA SCHOOLN/A         49  49  100 CALM    29.91S
#UMATILLA       N/A         51  44  77  S1      29.84F
$$

ORZ507-250710-
NORTHERN FOOTHILLS OF THE BLUES

CITY            SKY/WX      TMP DP  RH  WIND    PRES   REMARKS
PENDLETON AIRPT CLOUDY      45  44  96  N8      29.84F FOG
#ADAMS 3WNW     N/A         46  44  93  CALM    29.84F
#ATHENA         N/A         48  47  96  E7      29.86F
#CAYUSE         N/A         48  47  96  CALM    29.83F
#HELIX SCHOOL   N/A         47  46  96  N8      29.83F
#HELIX 3N       N/A         47  46  96  N8      29.83F
#HOLDMAN 5SE    N/A         49  47  93  CALM    29.86S
#HOLDMAN 6E     N/A         46  45  96  S10     29.65F
#M-F FERNDALE   N/A         49  46  89  CALM    29.86F
#M-F GROVE ELEM N/A         49  46  89  CALM    29.85F
#M-FREEWATER 5SEN/A         49  47  93  CALM    29.86F
#PENDLETON DNTN N/A         48  45  89  CALM    28.67S
#PDT AQUATIC CTRN/A         49  44  83  CALM    29.85S
#PDT SUNRIDGE   N/A         45  44  96  CALM    29.86F
#PENDLETON 7NW  N/A         47  42  83  CALM    26.03F
#PILOT ROCK     N/A         49  45  86  CALM    29.87F
#TUTUILLA       N/A         45  43  93  CALM    29.85S
#UMAPINE 2E     N/A         49  47  93  W1      29.83F
#WESTON SCHOOL  N/A         47  45  93  E5      29.80F

$$

ORZ508-250710-
SOUTHERN FOOTHILLS OF THE BLUES

CITY            SKY/WX      TMP DP  RH  WIND    PRES   REMARKS
LEXINGTON       FOG         46  46  100 N3      29.87F VSB 1/4
#AJAX           N/A         45  40  82  N10     29.79F
#CONDON SCHOOL  N/A         44  43  96  CALM    29.80F
#CONDON 5W      N/A         43  42  96  N7      29.81F
#HEPPNER EOC    N/A         46  45  96  CALM    29.80F
#HEPPNER 4NE    N/A         44  43  96  E1      29.83F
#LEXINGTON 2SE  N/A         48  45  89  N1      29.83S
#MIKKALO        N/A         47  44  89  E6      29.85F
#OLEX 4N        N/A         48  46  93  E7      29.86F
#RUGGS 5NE      N/A         45  44  96  CALM    30.01S
#RUGGS 2SW      N/A         45  44  96  N1      29.86F

$$

ORZ502-503-250710-
BLUE MOUNTAINS

CITY            SKY/WX      TMP DP  RH  WIND    PRES   REMARKS
MEACHAM         CLOUDY      49  44  83  CALM    29.87F
6HR MIN TEMP:   47; 6HR MAX TEMP:   49;

#BATTLE MTN DOT N/A         45  45  100 S7      N/A
#HARDMAN 10S    N/A         44  42  93  CALM    29.92F
#HEPPNER 15SE   N/A         52  44  74  SE1     29.74F
#LADD CYN SMT   N/A         45  41  86  SE3     N/A
#LADD CREEK ODOTN/A         45  43  93  W2      N/A
#N POWDER DOT   N/A         40  40  100 W2      N/A
#PIKES PEAK     N/A         56  42  59  S7      27.99S
#TOLLGATE       N/A         44  42  93  NE2     29.86F
#TROY SCHOOL    N/A         49  47  93  CALM    29.79F
#UKIAH          N/A         39  38  96  CALM    29.90F
#WESTON 4E      N/A         52  44  74  SE10    29.78F
$$

ORZ505-250710-
JOHN DAY BASIN

CITY            SKY/WX      TMP DP  RH  WIND    PRES   REMARKS
JOHN DAY        CLOUDY      48  44  86  CALM    29.87F
#JOHN DAY KJDY  N/A         47  42  83  CALM    30.03F
#DAYVILLE SCHOOLN/A         47  44  89  CALM    29.82F
#MT. VERNON 5SE N/A         53  44  71  SE7     29.83F
#WINLOCK        N/A         48  44  86  CALM    29.92F
$$

ORZ506-250710-
OCHOCO AND JOHN DAY HIGHLANDS

CITY            SKY/WX      TMP DP  RH  WIND    PRES   REMARKS
#BUCK CREEK DOT N/A         49  49  100 SE12    N/A    WCI 44
#HORSE RIDGE DO N/A         43  43  100 NW3     N/A
#KEYES SMT DOT  N/A         46  43  89  E7      N/A
#PAULINA SCHOOL N/A         44  41  89  CALM    29.86F
#PINE MTN OBS   N/A         48  35  60  SE24G41 N/A    WCI 40
#PRAIRIE CITY   N/A         40  38  92  CALM    29.94F
#SENECA         N/A         40  N/A N/A CALM    N/A
#SENECA 9NW     N/A         39  38  96  CALM    29.88F
$$

ORZ049-250710-
GRANDE RONDE VALLEY

CITY            SKY/WX      TMP DP  RH  WIND    PRES   REMARKS
LA GRANDE       CLOUDY      46  37  71  N3      29.90F
#COVE           N/A         44  43  96  CALM    29.84F
#COVE SCHOOL    N/A         45  43  93  CALM    29.90F
#COVE 6NW       N/A         42  40  93  CALM    29.96F
#ELGIN 3N       N/A         48  46  93  CALM    29.66F
#ELGIN 1E       N/A         47  43  86  CALM    N/A
#IMBLER SCHOOL  N/A         63  35  35  SW3     29.84S
#ISLAND CITY 4N N/A         50  49  96  CALM    29.70F
#LADD CYN DOT   N/A         45  44  96  CALM    N/A
#UNION 1S       N/A         49  45  86  CALM    29.81F
$$

ORZ050-250710-
WALLOWA COUNTY

CITY            SKY/WX      TMP DP  RH  WIND    PRES   REMARKS
JOSEPH AIRPORT  CLOUDY      45  45  100 CALM    29.92F
#ENTERPRISE HS  N/A         45  43  93  CALM    29.96F
#IMNAHA 10S     N/A         44  42  93  SW2     29.93F
#JOSEPH 3N      N/A         43  42  96  CALM    29.93F
#JOSEPH 3W      N/A         41  40  96  S2      29.78F
#LOSTINE        N/A         44  42  93  CALM    29.74F
#MT HOWARD 8000 N/A         47  31  53  S16G37  30.01F WCI 41
#PROMISE 1S     N/A         44  43  96  CALM    30.04F
#SHEEP RDG 7000 N/A         51  31  46  CALM    29.95F
#WALLOWA SCHOOL N/A         45  44  96  CALM    30.86F



$$



National Weather Service
Disclaimer
Last Modified: August 31, 2005
Privacy Policy